Location: Feura Bush
(42.5779°N, 73.8787°W)
Time: 06:54:49
(UTC+00:00)

UNISAT 6 - Pass Details

Date: 12 December 2024
Orbit: 584 x 653 km, 97.7° (Epoch: 18 January)

Event Time Altitude Azimuth Distance (km) Brightness Sun altitude
Rises 21:46:27 0° 7° (N) 2,832 ? -4.7°
Reaches altitude 10° 21:48:39 10° 2° (N) 1,933 ? -5.0°
Maximum altitude 21:52:42 50° 287° (WNW) 769 ? -5.7°
Drops below altitude 10° 21:56:48 10° 212° (SSW) 1,952 ? -6.4°
Sets 21:59:01 0° 207° (SSW) 2,864 ? -6.8°
